Regional Weather Roundup
Issued by NWS

Home | Current Version | Previous Version | Graphics & Text | Print | Product List | Glossary On
Versions: 1 2 3 4 5 6 7 8 9 10 11 12 13 14 15 16 17 18 19 20 21 22 23 24 25 26 27 28 29 30 31 32 33 34 35 36 37 38 39 40 41 42 43 44 45 46 47 48 49 50
000
ASUS43 KLMK 290010
RWRKY
KENTUCKY REGIONAL WEATHER ROUNDUP
NATIONAL WEATHER SERVICE LOUISVILLE KY
800 PM EDT THU AUG 28 2014

NOTE "FAIR" INDICATES FEW OR NO CLOUDS BELOW 12,000 FEET
WITH NO SIGNIFICANT WEATHER AND/OR OBSTRUCTIONS TO VISIBILITY.

KYZ001>023-026-027-061>063-070>075-290100-
WESTERN AND SOUTH CENTRAL KENTUCKY

CITY           SKY/WX    TMP DP  RH WIND       PRES   REMARKS
PADUCAH        LGT RAIN  74  70  87 NE7       29.98F FOG
HENDERSON      CLOUDY    79  70  73 E5        30.01R THUNDER
OWENSBORO      CLOUDY    78  71  79 W6        30.00F
HOPKINSVILLE   CLOUDY    79  76  90 SE3       29.99S
BOWLING GREEN  MOCLDY    74  71  91 SE5       30.00F
GLASGOW        CLOUDY    74  71  91 CALM      30.00F
$$

KYZ024-025-028>034-038-045-046-053-290100-
NORTH CENTRAL KENTUCKY

CITY           SKY/WX    TMP DP  RH WIND       PRES   REMARKS
LOUISVILLE/SDF PTCLDY    85  69  58 E7        30.00R
LOUISVILLE/LOU CLEAR     85  68  56 E6        30.01R
FORT KNOX      PTCLDY    80  74  84 NE3       30.00S
$$

KYZ035>037-039>044-047>052-055>060-089>105-290100-
NORTHEAST KENTUCKY

CITY           SKY/WX    TMP DP  RH WIND       PRES   REMARKS
LEXINGTON      CLEAR     83  67  58 E7        30.05R
COVINGTON      PTCLDY    80  62  54 E7        30.05R
FRANKFORT      CLEAR     81  69  67 E5        30.02S
$$

KYZ054-064>069-076>088-106>120-290100-
SOUTHEAST KENTUCKY

CITY           SKY/WX    TMP DP  RH WIND       PRES   REMARKS
JACKSON        CLEAR     76  67  73 CALM      30.06S
LONDON         CLEAR     81  69  67 NE5       30.05R
SOMERSET       CLEAR     81  70  69 E6        30.04R
MIDDLESBORO    CLEAR     80  73  77 W5        30.03R
MONTICELLO     CLEAR     80  76  87 CALM      30.04R
$$




USA.gov is the U.S. government's official web portal to all federal, state and local government web resources and services.